Location: Hradec Kralove
(50.2170°N, 15.8330°E)
Time: 10:07:39
(UTC+01:00)

X-37B - Pass Details

Date: 10 December 2022
Orbit: 277 x 277 km, 45.0° (Epoch: 01 November)

Event Time Altitude Azimuth Distance (km) Brightness Sun altitude
Rises 16:59:26 0° 215° (SW) 1,907 5.2 -9.9°
Reaches altitude 10° 17:02:22 10° 174° (S) 1,098 3.1 -10.3°
Maximum altitude 17:03:06 11° 157° (SSE) 1,052 2.8 -10.4°
Drops below altitude 10° 17:03:50 10° 139° (SE) 1,100 2.7 -10.5°
Enters shadow 17:04:40 - 123° (ESE) 1,253 2.8 -10.7°
